Time,TemperatureF,DewpointF,PressureIn,WindDirection,WindDirectionDegrees,WindSpeedMPH,WindSpeedGustMPH,Humidity,HourlyPrecipIn,Conditions,Clouds,dailyrainin,SoftwareType,DateUTC
2013-01-14 00:08:00,52.1,51.0,30.19,SE,142,0.0,-999.0,96,-99.99,,,0.01,weatherlink.com 1.10,2013-01-14 05:08:00,
2013-01-14 00:23:00,52.1,51.0,30.19,SE,142,0.0,-999.0,96,-99.99,,,0.01,weatherlink.com 1.10,2013-01-14 05:23:00,
2013-01-14 00:38:00,52.2,51.0,30.19,SE,142,0.0,-999.0,96,-99.99,,,0.01,weatherlink.com 1.10,2013-01-14 05:38:00,
2013-01-14 00:53:00,52.3,51.0,30.20,SE,142,0.0,-999.0,96,-99.99,,,0.01,weatherlink.com 1.10,2013-01-14 05:53:00,
2013-01-14 01:08:00,52.5,52.0,30.20,SE,142,2.0,-999.0,97,-99.99,,,0.01,weatherlink.com 1.10,2013-01-14 06:08:00,
2013-01-14 01:23:00,52.8,52.0,30.20,SE,142,0.0,-999.0,97,-99.99,,,0.01,weatherlink.com 1.10,2013-01-14 06:23:00,
2013-01-14 01:38:00,53.0,52.0,30.20,SE,142,0.0,-999.0,97,-99.99,,,0.00,weatherlink.com 1.10,2013-01-14 06:38:00,
2013-01-14 01:53:00,53.2,52.0,30.21,SE,142,0.0,-999.0,97,-99.99,,,0.00,weatherlink.com 1.10,2013-01-14 06:53:00,
2013-01-14 02:08:00,53.5,53.0,30.21,SE,142,0.0,-999.0,97,-99.99,,,0.01,weatherlink.com 1.10,2013-01-14 07:08:00,
2013-01-14 02:23:00,54.0,53.0,30.22,SE,142,0.0,-999.0,97,-99.99,,,0.06,weatherlink.com 1.10,2013-01-14 07:23:00,
2013-01-14 02:38:00,55.3,55.0,30.23,NNW,338,0.0,-999.0,98,-99.99,,,0.13,weatherlink.com 1.10,2013-01-14 07:38:00,
2013-01-14 02:53:00,56.3,56.0,30.24,NNW,338,0.0,-999.0,98,-99.99,,,0.21,weatherlink.com 1.10,2013-01-14 07:53:00,
2013-01-14 03:08:00,56.4,56.0,30.23,SSE,154,0.0,-999.0,98,-99.99,,,0.26,weatherlink.com 1.10,2013-01-14 08:08:00,
2013-01-14 03:23:00,57.3,57.0,30.23,SW,215,0.0,-999.0,98,-99.99,,,0.29,weatherlink.com 1.10,2013-01-14 08:23:00,
2013-01-14 03:39:00,57.6,57.0,30.20,SW,215,0.0,-999.0,98,-99.99,,,0.33,weatherlink.com 1.10,2013-01-14 08:39:00,
2013-01-14 03:54:00,57.6,57.0,30.20,SW,215,0.0,-999.0,98,-99.99,,,0.33,weatherlink.com 1.10,2013-01-14 08:54:00,
2013-01-14 04:09:00,57.5,57.0,30.20,SW,215,0.0,-999.0,98,-99.99,,,0.33,weatherlink.com 1.10,2013-01-14 09:09:00,
2013-01-14 04:24:00,57.4,57.0,30.19,WSW,238,0.0,-999.0,98,-99.99,,,0.33,weatherlink.com 1.10,2013-01-14 09:24:00,
2013-01-14 04:39:00,57.0,57.0,30.19,WSW,238,0.0,-999.0,98,-99.99,,,0.33,weatherlink.com 1.10,2013-01-14 09:39:00,
2013-01-14 04:54:00,56.8,56.0,30.19,WSW,238,0.0,-999.0,97,-99.99,,,0.34,weatherlink.com 1.10,2013-01-14 09:54:00,
2013-01-14 05:09:00,56.5,56.0,30.18,WSW,238,0.0,-999.0,98,-99.99,,,0.34,weatherlink.com 1.10,2013-01-14 10:09:00,
2013-01-14 05:24:00,56.3,56.0,30.17,WSW,238,0.0,-999.0,98,-99.99,,,0.34,weatherlink.com 1.10,2013-01-14 10:24:00,
2013-01-14 05:39:00,56.4,56.0,30.18,WSW,238,0.0,-999.0,98,-99.99,,,0.34,weatherlink.com 1.10,2013-01-14 10:39:00,
2013-01-14 05:54:00,56.5,56.0,30.19,WSW,238,0.0,-999.0,98,-99.99,,,0.34,weatherlink.com 1.10,2013-01-14 10:54:00,
2013-01-14 06:09:00,56.5,56.0,30.19,WSW,238,0.0,-999.0,98,-99.99,,,0.34,weatherlink.com 1.10,2013-01-14 11:09:00,
2013-01-14 06:24:00,56.5,56.0,30.19,WSW,238,0.0,-999.0,98,-99.99,,,0.34,weatherlink.com 1.10,2013-01-14 11:24:00,
2013-01-14 06:39:00,56.4,56.0,30.19,WSW,238,0.0,-999.0,98,-99.99,,,0.34,weatherlink.com 1.10,2013-01-14 11:39:00,
2013-01-14 06:54:00,56.2,56.0,30.20,WSW,238,0.0,-999.0,98,-99.99,,,0.34,weatherlink.com 1.10,2013-01-14 11:54:00,
2013-01-14 07:09:00,56.2,56.0,30.20,WSW,238,0.0,-999.0,98,-99.99,,,0.34,weatherlink.com 1.10,2013-01-14 12:09:00,
2013-01-14 07:24:00,56.0,56.0,30.21,WSW,238,0.0,-999.0,98,-99.99,,,0.34,weatherlink.com 1.10,2013-01-14 12:24:00,
2013-01-14 07:39:00,56.1,56.0,30.21,WSW,238,0.0,-999.0,98,-99.99,,,0.34,weatherlink.com 1.10,2013-01-14 12:39:00,
2013-01-14 07:54:00,56.3,56.0,30.21,WSW,238,0.0,-999.0,98,-99.99,,,0.34,weatherlink.com 1.10,2013-01-14 12:54:00,
2013-01-14 08:09:00,56.4,56.0,30.22,WSW,238,0.0,-999.0,98,-99.99,,,0.34,weatherlink.com 1.10,2013-01-14 13:09:00,
2013-01-14 08:24:00,56.3,56.0,30.22,WSW,238,0.0,-999.0,98,-99.99,,,0.35,weatherlink.com 1.10,2013-01-14 13:24:00,
2013-01-14 08:39:00,56.7,56.0,30.22,WSW,238,0.0,-999.0,98,-99.99,,,0.36,weatherlink.com 1.10,2013-01-14 13:39:00,
2013-01-14 08:54:00,57.0,57.0,30.23,WSW,238,0.0,-999.0,98,-99.99,,,0.37,weatherlink.com 1.10,2013-01-14 13:54:00,
2013-01-14 09:09:00,57.1,57.0,30.23,WSW,238,0.0,-999.0,98,-99.99,,,0.38,weatherlink.com 1.10,2013-01-14 14:09:00,
2013-01-14 09:24:00,57.2,57.0,30.23,WSW,238,0.0,-999.0,98,-99.99,,,0.38,weatherlink.com 1.10,2013-01-14 14:24:00,
2013-01-14 09:39:00,57.4,57.0,30.24,WSW,238,0.0,-999.0,98,-99.99,,,0.38,weatherlink.com 1.10,2013-01-14 14:39:00,
2013-01-14 09:54:00,57.3,57.0,30.23,WSW,238,0.0,-999.0,98,-99.99,,,0.38,weatherlink.com 1.10,2013-01-14 14:54:00,
2013-01-14 10:09:00,57.5,57.0,30.24,WSW,238,0.0,-999.0,98,-99.99,,,0.40,weatherlink.com 1.10,2013-01-14 15:09:00,
2013-01-14 10:24:00,58.0,58.0,30.24,WSW,238,0.0,-999.0,98,-99.99,,,0.40,weatherlink.com 1.10,2013-01-14 15:24:00,
2013-01-14 10:39:00,58.5,58.0,30.25,WSW,238,0.0,-999.0,98,-99.99,,,0.40,weatherlink.com 1.10,2013-01-14 15:39:00,
2013-01-14 10:54:00,58.7,58.0,30.24,WSW,238,0.0,-999.0,98,-99.99,,,0.41,weatherlink.com 1.10,2013-01-14 15:54:00,
2013-01-14 11:09:00,58.9,58.0,30.23,WSW,238,0.0,-999.0,98,-99.99,,,0.41,weatherlink.com 1.10,2013-01-14 16:09:00,
2013-01-14 11:24:00,59.1,59.0,30.23,WSW,238,0.0,-999.0,98,-99.99,,,0.49,weatherlink.com 1.10,2013-01-14 16:24:00,
2013-01-14 11:39:00,59.2,59.0,30.22,WSW,238,0.0,-999.0,98,-99.99,,,0.51,weatherlink.com 1.10,2013-01-14 16:39:00,
2013-01-14 11:54:00,59.5,59.0,30.22,WSW,238,0.0,-999.0,98,-99.99,,,0.51,weatherlink.com 1.10,2013-01-14 16:54:00,
2013-01-14 12:09:00,59.7,59.0,30.22,WSW,238,0.0,-999.0,98,-99.99,,,0.52,weatherlink.com 1.10,2013-01-14 17:09:00,
2013-01-14 12:24:00,59.9,59.0,30.21,WSW,238,0.0,-999.0,98,-99.99,,,0.53,weatherlink.com 1.10,2013-01-14 17:24:00,
2013-01-14 12:39:00,59.9,59.0,30.21,NW,318,4.0,-999.0,98,-99.99,,,0.55,weatherlink.com 1.10,2013-01-14 17:39:00,
2013-01-14 12:54:00,58.2,58.0,30.20,NNW,339,0.0,-999.0,98,-99.99,,,0.57,weatherlink.com 1.10,2013-01-14 17:54:00,
2013-01-14 13:09:00,58.1,58.0,30.20,NNW,339,2.0,-999.0,98,-99.99,,,0.58,weatherlink.com 1.10,2013-01-14 18:09:00,
2013-01-14 13:24:00,57.7,57.0,30.20,NW,322,2.0,-999.0,98,-99.99,,,0.59,weatherlink.com 1.10,2013-01-14 18:24:00,
2013-01-14 13:39:00,56.8,56.0,30.20,NW,308,5.0,-999.0,98,-99.99,,,0.60,weatherlink.com 1.10,2013-01-14 18:39:00,
2013-01-14 13:54:00,56.7,56.0,30.20,NW,311,0.0,-999.0,98,-99.99,,,0.60,weatherlink.com 1.10,2013-01-14 18:54:00,
2013-01-14 14:09:00,56.7,56.0,30.20,North,355,0.0,-999.0,98,-99.99,,,0.61,weatherlink.com 1.10,2013-01-14 19:09:00,
2013-01-14 14:24:00,56.4,56.0,30.20,North,355,0.0,-999.0,98,-99.99,,,0.62,weatherlink.com 1.10,2013-01-14 19:24:00,
2013-01-14 14:39:00,56.4,56.0,30.21,North,355,2.0,-999.0,97,-99.99,,,0.63,weatherlink.com 1.10,2013-01-14 19:39:00,
2013-01-14 14:54:00,56.4,56.0,30.21,North,355,0.0,-999.0,98,-99.99,,,0.64,weatherlink.com 1.10,2013-01-14 19:54:00,
2013-01-14 15:09:00,56.5,56.0,30.21,North,355,0.0,-999.0,98,-99.99,,,0.67,weatherlink.com 1.10,2013-01-14 20:09:00,
2013-01-14 15:24:00,56.5,56.0,30.21,North,355,0.0,-999.0,98,-99.99,,,0.69,weatherlink.com 1.10,2013-01-14 20:24:00,
2013-01-14 15:39:00,56.4,56.0,30.23,North,355,0.0,-999.0,97,-99.99,,,0.71,weatherlink.com 1.10,2013-01-14 20:39:00,
2013-01-14 15:54:00,56.3,56.0,30.24,North,355,0.0,-999.0,97,-99.99,,,0.74,weatherlink.com 1.10,2013-01-14 20:54:00,
2013-01-14 16:09:00,56.1,55.0,30.24,North,355,0.0,-999.0,97,-99.99,,,0.78,weatherlink.com 1.10,2013-01-14 21:09:00,
2013-01-14 16:24:00,56.0,55.0,30.24,North,355,0.0,-999.0,97,-99.99,,,0.82,weatherlink.com 1.10,2013-01-14 21:24:00,
2013-01-14 16:39:00,55.9,55.0,30.24,North,355,0.0,-999.0,97,-99.99,,,0.88,weatherlink.com 1.10,2013-01-14 21:39:00,
2013-01-14 16:54:00,55.9,55.0,30.24,North,355,0.0,-999.0,98,-99.99,,,0.96,weatherlink.com 1.10,2013-01-14 21:54:00,
2013-01-14 17:09:00,55.9,55.0,30.24,NNW,348,5.0,-999.0,98,-99.99,,,1.06,weatherlink.com 1.10,2013-01-14 22:09:00,
2013-01-14 17:24:00,56.0,56.0,30.24,NNW,348,2.0,-999.0,98,-99.99,,,1.14,weatherlink.com 1.10,2013-01-14 22:24:00,
2013-01-14 17:39:00,56.3,56.0,30.25,NNW,328,6.0,-999.0,98,-99.99,,,1.22,weatherlink.com 1.10,2013-01-14 22:39:00,
2013-01-14 17:54:00,56.7,56.0,30.25,NNW,338,5.0,-999.0,98,-99.99,,,1.39,weatherlink.com 1.10,2013-01-14 22:54:00,
2013-01-14 18:09:00,56.6,56.0,30.25,NNW,336,1.0,-999.0,98,-99.99,,,1.47,weatherlink.com 1.10,2013-01-14 23:09:00,
2013-01-14 18:24:00,56.4,56.0,30.26,WSW,240,5.0,-999.0,98,-99.99,,,1.50,weatherlink.com 1.10,2013-01-14 23:24:00,
2013-01-14 18:39:00,56.3,56.0,30.26,NNW,341,6.0,-999.0,98,-99.99,,,1.53,weatherlink.com 1.10,2013-01-14 23:39:00,
2013-01-14 18:54:00,56.3,56.0,30.26,NNW,330,4.0,-999.0,98,-99.99,,,1.55,weatherlink.com 1.10,2013-01-14 23:54:00,
2013-01-14 19:09:00,56.2,56.0,30.26,NE,49,0.0,-999.0,98,-99.99,,,1.58,weatherlink.com 1.10,2013-01-15 00:09:00,
2013-01-14 19:24:00,56.1,56.0,30.26,NE,49,0.0,-999.0,98,-99.99,,,1.59,weatherlink.com 1.10,2013-01-15 00:24:00,
2013-01-14 19:39:00,56.0,56.0,30.26,NE,49,0.0,-999.0,98,-99.99,,,1.60,weatherlink.com 1.10,2013-01-15 00:39:00,
2013-01-14 19:54:00,56.0,56.0,30.25,NE,49,0.0,-999.0,98,-99.99,,,1.60,weatherlink.com 1.10,2013-01-15 00:54:00,
2013-01-14 20:09:00,55.9,55.0,30.25,NE,49,0.0,-999.0,98,-99.99,,,1.62,weatherlink.com 1.10,2013-01-15 01:09:00,
2013-01-14 20:24:00,55.9,55.0,30.24,NNW,342,0.0,-999.0,98,-99.99,,,1.62,weatherlink.com 1.10,2013-01-15 01:24:00,
2013-01-14 20:39:00,55.9,55.0,30.25,NNW,342,0.0,-999.0,98,-99.99,,,1.63,weatherlink.com 1.10,2013-01-15 01:39:00,
2013-01-14 20:54:00,55.9,55.0,30.25,North,10,0.0,-999.0,98,-99.99,,,1.64,weatherlink.com 1.10,2013-01-15 01:54:00,
2013-01-14 21:09:00,56.1,56.0,30.26,NNW,337,4.0,-999.0,98,-99.99,,,1.67,weatherlink.com 1.10,2013-01-15 02:09:00,
2013-01-14 21:24:00,53.7,53.0,30.27,NNW,344,8.0,-999.0,96,-99.99,,,1.75,weatherlink.com 1.10,2013-01-15 02:24:00,
2013-01-14 21:40:00,52.4,51.0,30.27,NNW,341,8.0,-999.0,96,-99.99,,,1.78,weatherlink.com 1.10,2013-01-15 02:40:00,
2013-01-14 21:55:00,52.2,51.0,30.27,NW,309,8.0,-999.0,96,-99.99,,,1.78,weatherlink.com 1.10,2013-01-15 02:55:00,
2013-01-14 22:10:00,52.2,51.0,30.28,North,10,4.0,-999.0,95,-99.99,,,1.80,weatherlink.com 1.10,2013-01-15 03:10:00,
2013-01-14 22:25:00,52.0,51.0,30.29,NNW,347,4.0,-999.0,95,-99.99,,,1.86,weatherlink.com 1.10,2013-01-15 03:25:00,
2013-01-14 22:40:00,51.6,50.0,30.29,NNE,20,2.0,-999.0,95,-99.99,,,1.90,weatherlink.com 1.10,2013-01-15 03:40:00,
2013-01-14 22:55:00,51.2,50.0,30.29,North,355,2.0,-999.0,95,-99.99,,,1.90,weatherlink.com 1.10,2013-01-15 03:55:00,
2013-01-14 23:10:00,50.9,49.0,30.29,NNE,19,1.0,-999.0,94,-99.99,,,1.91,weatherlink.com 1.10,2013-01-15 04:10:00,
2013-01-14 23:25:00,50.5,49.0,30.30,North,349,5.0,-999.0,94,-99.99,,,1.92,weatherlink.com 1.10,2013-01-15 04:25:00,
2013-01-14 23:40:00,50.2,49.0,30.31,NNE,32,3.0,-999.0,94,-99.99,,,1.95,weatherlink.com 1.10,2013-01-15 04:40:00,
2013-01-14 23:55:00,49.9,48.0,30.32,NNW,340,1.0,-999.0,94,-99.99,,,1.98,weatherlink.com 1.10,2013-01-15 04:55:00,